Location: Coffee Ditch
(40.9640°N, 122.7500°W)
Time: 06:37:29
(UTC+00:00)

Cosmos 1605 Rocket - Pass Details

Date: 08 September 2024
Orbit: 944 x 1005 km, 82.9° (Epoch: 05 October)

Event Time Altitude Azimuth Distance (km) Brightness Sun altitude
Rises 12:36:25 0° 354° (N) 3,710 7.2 -13.4°
Reaches altitude 10° 12:38:59 10° 357° (N) 2,749 6.6 -13.0°
Maximum altitude 12:45:17 71° 81° (E) 1,028 4.3 -11.9°
Drops below altitude 10° 12:51:25 10° 166° (SSE) 2,688 6.3 -10.8°
Sets 12:53:54 0° 168° (SSE) 3,622 6.9 -10.3°
